Regional Weather Roundup
Issued by NWS Cleveland, OH

Home | Current Version | Previous Version | Graphics & Text | Print | Product List | Glossary On
Versions: 1 2 3 4 5 6 7 8 9 10 11 12 13 14 15 16 17 18 19 20 21 22 23 24 25 26 27 28 29 30 31 32 33 34 35 36 37 38 39 40 41 42 43 44 45 46 47 48 49 50
000
ASUS41 KCLE 291310
RWRCLE
OHIO REGIONAL WEATHER ROUNDUP
NATIONAL WEATHER SERVICE CLEVELAND, OH
900 AM EDT MON AUG 29 2016

NOTE: "FAIR" INDICATES FEW OR NO CLOUDS BELOW 12,000 FEET WITH NO
SIGNIFICANT WEATHER AND/OR OBSTRUCTIONS TO VISIBILITY.

OHZ001>008-015>018-024>027-034-035-043-044-291400-
   NORTHWEST OHIO

CITY           SKY/WX    TMP DP  RH WIND       PRES   REMARKS
DEFIANCE       MOSUNNY   73  70  90 E6        30.26S
FINDLAY        CLOUDY    74  71  91 NE9       30.25S FOG
TOLEDO EXPRESS SUNNY     73  71  93 NE7       30.26R
TOLEDO EXEC    MOSUNNY   76  71  85 NE7       30.27R
LIMA           PTSUNNY   72  72 100 NE7       30.26R FOG
$$

OHZ009>014-019>023-028>033-038-089-291400-
   NORTHEAST OHIO

CITY           SKY/WX    TMP DP  RH WIND       PRES   REMARKS
CLE-HOPKINS    MOSUNNY   77  62  59 E14       30.28R
CLE-LAKEFRONT  SUNNY     76  63  64 NE13      30.25R
CUY CO. ARPT   SUNNY     75  68  78 E12       30.28R
LORAIN-ELYRIA  CLOUDY    75  67  76 E9        30.27R
ASHTABULA      SUNNY     72  65  78 NE3       30.28R
AKRON-CANTON   MOSUNNY   73  66  78 NE13      30.27R
WOOSTER        PTSUNNY   72  70  93 NE7       30.28R FOG
MANSFIELD      CLOUDY    72  72 100 NE6       30.28R FOG
YOUNGSTOWN     MOSUNNY   71  65  81 NE9       30.27R
$$

OHZ042-051>053-060>062-070>072-077>081-291400-
  SOUTHWEST OHIO

CITY           SKY/WX    TMP DP  RH WIND       PRES   REMARKS
CINC-COVINGTON SUNNY     73  69  87 N5        30.23R
CINC-LUNKEN    SUNNY     73  70  90 NE3       30.23R
HAMILTON       SUNNY     74  69  85 VRB3      30.24R
DAYTON         MOSUNNY   74  69  85 NE6       30.26R
WRIGHT-PAT AFB MOSUNNY   73  69  90 NE5       30.24R
DAYTON GENERAL SUNNY     74  67  78 E9        30.23R
WILMINGTON     SUNNY     73  70  90 NE8       30.24R
$$

OHZ036-037-039>041-045>050-054>059-063>069-073>076-082>088-291400-
  CENTRAL AND SOUTHEAST OHIO

CITY           SKY/WX    TMP DP  RH WIND       PRES   REMARKS
COLUMBUS       CLOUDY    74  68  81 NE6       30.23R
OSU AIRPORT    SUNNY     76  70  82 NE5       30.24R
BOLTON FIELD   SUNNY     75  72  88 NE5       30.24S
RICKENBACK AFB CLOUDY    72  69  92 NE3       30.23R
NEWARK         CLOUDY    74  68  81 NE3       30.24R
MARION         SUNNY     74  70  87 NE12      30.26R
LANCASTER      CLOUDY    74  68  81 NE3       30.24R
ZANESVILLE     CLOUDY    71  66  84 NE3       30.24R
NEW PHILLY     CLOUDY    73  69  87 E7        30.26R
$$



USA.gov is the U.S. government's official web portal to all federal, state and local government web resources and services.